Hourly Weather Roundup
Issued by NWS

Home | Current Version | Previous Version | Text Only | Print | Product List | Glossary On
Versions: 1 2 3 4 5 6 7 8 9 10 11 12 13 14 15 16 17 18 19 20 21 22 23 24 25 26 27 28 29 30 31 32 33 34 35 36 37 38 39 40 41 42 43 44 45 46 47 48 49 50
149
NZUS43 KILX 130510
HWRCRS

CRS HOURLY WEATHER ROUNDUP
NATIONAL WEATHER SERVICE, LINCOLN IL
1100 PM CST FRI FEB 12 2016


CITY           SKY/WX    TMP DP  RH WIND       PRES   REMARKS
CHAMPAIGN      CLEAR     13   4  67 NW16      30.44R WCI  -3
LAWRENCEVILLE  CLEAR     20   4  50 N17       30.45R WCI   5
PEORIA         CLEAR     11  -1  58 NW12G17   30.52R WCI  -3
SPRINGFIELD    CLEAR     15   2  56 NW15      30.51R WCI   0
$$


CITY           SKY/WX    TMP DP  RH WIND       PRES   REMARKS
BLOOMINGTON    PTCLDY    12   2  64 NW16G22   30.46R WCI  -5
DECATUR        CLEAR     14   2  58 NW10      30.47R WCI   1
EFFINGHAM      CLEAR     18   6  59 NW22G28   30.49R WCI   1
FLORA          PTCLDY    22   8  54 NW16      30.47R WCI   8
GALESBURG      CLEAR      9   0  66 NW14      30.54R WCI  -8
JACKSONVILLE   CLEAR     16   4  59 NW16G23   30.53R WCI   1
LACON          CLEAR     11  -1  57 NW10G20   30.50R WCI  -3
LINCOLN        CLEAR     13   3  62 NW9G17    30.50R WCI   1
LITCHFIELD     CLEAR     16   4  61 NW22      30.50R WCI  -2

CITY           SKY/WX    TMP DP  RH WIND       PRES   REMARKS
MACOMB         CLOUDY    11   3  70 NW12      30.57R WCI  -3
MATTOON        CLEAR     14   4  64 NW17      30.45R WCI  -3
MOLINE         CLEAR      9  -4  55 NW13G21   30.55R WCI  -7
OLNEY          CLEAR     19   7  58 NW15G23   30.47R WCI   5
PARIS          PTCLDY    15   7  71 NW15G21   30.44R WCI   0
PONTIAC        PTCLDY    14   2  59 N15       30.47R WCI  -2
QUINCY         CLOUDY    11   1  64 NW16      30.56R WCI  -6
RANTOUL        PTCLDY    15   6  65 NW13G20   30.43R WCI   1
ROBINSON       PTCLDY    18   5  58 NW14      30.47R WCI   4
TAYLORVILLE    CLEAR     16   5  62 NW17      30.50R WCI   0
TERRE HAUTE    CLEAR     17   5  59 NW16      30.42R WCI   2
$$


CITY           SKY/WX    TMP DP  RH WIND       PRES   REMARKS
BURLINGTON     CLEAR     10   0  63 NW13G22   30.56R WCI  -5
CHICAGO        PTCLDY     8  -8  48 N21       30.44R WCI -12
DES MOINES     CLOUDY     6  -3  66 NW7       30.63R WCI  -6
EVANSVILLE     PTCLDY    25  12  58 NW12G21   30.43R WCI  14
INDIANAPOLIS   MOCLDY    17   4  56 NW14G24   30.35R WCI   3
KANSAS CITY    CLOUDY    19   7  59 N14       30.59S WCI   6
MILWAUKEE      CLEAR      4 -12  48 NW15G23   30.46R WCI -14
ST LOUIS       CLEAR     20   5  52 NW14      30.53R WCI   7
$$





USA.gov is the U.S. government's official web portal to all federal, state and local government web resources and services.